Regional Weather Roundup
Issued by NWS

Home | Current Version | Previous Version | Text Only | Print | Product List | Glossary On
Versions: 1 2 3 4 5 6 7 8 9 10 11 12 13 14 15 16 17 18 19 20 21 22 23 24 25 26 27 28 29 30 31 32 33 34 35 36 37 38 39 40 41 42 43 44 45 46 47 48 49 50
000
ASUS45 KPSR 242210
RWRAZ

ARIZONA REGIONAL HOURLY WEATHER ROUNDUP
NATIONAL WEATHER SERVICE PHOENIX AZ
300 PM MST MON NOV 24 2014

NOTE: FAIR INDICATES FEW OR NO CLOUDS BELOW 12,000 FEET WITH NO
SIGNIFICANT WEATHER AND/OR OBSTRUCTIONS TO VISIBILITY.

AZZ001>003-036-242300-
NORTHWEST ARIZONA

CITY           SKY/WX    TMP DP  RH WIND       PRES   REMARKS
BULLHEAD CITY  SUNNY     68  10  10 N22G29    30.28F
KINGMAN        SUNNY     59   5  11 N16G23    30.31S
$$

AZZ004>008-015-016-018-242300-
NORTH CENTRAL ARIZONA

CITY           SKY/WX    TMP DP  RH WIND       PRES   REMARKS
GRAND CANYON   SUNNY     42   2  18 NW15G26   30.28R
PRESCOTT       SUNNY     55  -2   9 N20G28    30.25S
FLAGSTAFF      SUNNY     43   0  16 NE14G22   30.24R
PAYSON         SUNNY     54   0  11 NW14G22   30.20S
$$

AZZ009>014-017-242300-
NORTHEAST ARIZONA

CITY           SKY/WX    TMP DP  RH WIND       PRES   REMARKS
WINSLOW        SUNNY     51   2  13 NW23G31   30.23R
SAINT JOHNS    SUNNY     46   0  14 NW24G41   30.16F
SHOW LOW       SUNNY     41  -2  16 NW15G31   30.23S
$$

AZZ023-242300-
GREATER PHOENIX AREA

CITY           SKY/WX    TMP DP  RH WIND       PRES   REMARKS
PHOENIX        MOSUNNY   70   9   9 SW10      30.15F
BUCKEYE          N/A     70  10  10 S7        30.18S
GLENDALE       MOSUNNY   70  12  11 SW10      30.17F
LUKE AFB       MOSUNNY   69  17  13 W10       30.16F
DEER VALLEY    SUNNY     72   0   6 N10       30.14F
SCOTTSDALE     SUNNY     69   5   8 SW7       30.16F
MESA-GATEWAY   MOSUNNY   66  10  11 W7        30.18F
CHANDLER       MOSUNNY   66  10  11 S6        30.17F
$$

AZZ027-028-242300-
SOUTHWEST MARICOPA COUNTY AND PINAL COUNTY

CITY           SKY/WX    TMP DP  RH WIND       PRES   REMARKS
CASA GRANDE    SUNNY     64  10  12 CALM      30.18F
GILA BEND      MOCLDY    68   7   9 W5        30.18F
$$

AZZ503-504-507>509-242300-
SOUTHEAST ARIZONA

CITY           SKY/WX    TMP DP  RH WIND       PRES   REMARKS
TUCSON         SUNNY     64  -2   7 NW14      30.19S
DAVIS-MONTHAN  SUNNY     62  -3   7 W16       30.16F
RYAN FIELD       N/A     70  14  11 NW14      30.20
NOGALES        SUNNY     61  -4   7 NW14G25   30.16F
SIERRA VISTA   MOSUNNY   55  -8   7 NW18      30.17S
DOUGLAS        SUNNY     61  -3   7 N13       30.14F
SAFFORD        SUNNY     63  -1   7 W23       30.09F
$$

AZZ020-021-025-026-031-242300-
SOUTHWEST ARIZONA

CITY           SKY/WX    TMP DP  RH WIND       PRES   REMARKS
YUMA           PTSUNNY   74  12   9 N15       30.21S
$$

CAZ031-033-041-043-047-048-061-242300-
SOUTHERN CALIFORNIA

CITY           SKY/WX    TMP DP  RH WIND       PRES   REMARKS
DOWNTOWN L.A.  SUNNY     79  13   8 CALM      30.16F
L.A. AIRPORT   MOSUNNY   78  17  10 W8        30.18S
SAN DIEGO      MOSUNNY   73  24  16 NW10      30.16F
BURBANK        SUNNY     79  12   8 N15G21    30.18F
ONTARIO        MOSUNNY   76  11   8 NE24G39   30.18S
RIVERSIDE      SUNNY     76  11   8 N13G23    30.20R
PALM SPRINGS   MOSUNNY   79   9   7 N17       30.25S
EL CENTRO NAS  MOSUNNY   76  10   8 VRB5      30.22S
IMPERIAL       MOSUNNY   74  14  10 NW6       30.22S
BLYTHE         SUNNY     74  10   8 N24G31    30.22F
NEEDLES        SUNNY     71   6   8 N26G35    30.28R
$$

NVZ020-UTZ003-242300-
SOUTHERN NEVADA-UTAH

CITY           SKY/WX    TMP DP  RH WIND       PRES   REMARKS
LAS VEGAS      MOSUNNY   64   8  11 CALM      30.29F
SALT LAKE CITY MOSUNNY   40  22  48 W6        30.38R
$$

NMZ009-TXZ055-242300-
NEW MEXICO-WEST TEXAS

CITY           SKY/WX    TMP DP  RH WIND       PRES   REMARKS
ALBUQUERQUE    MOSUNNY   46   4  17 NW26G33   30.10R
EL PASO        MOSUNNY   56  -8   7 NW13      30.07S
$$


........................KEY........................
SKY/WX - SKY CONDITION/WEATHER
TMP    - TEMPERATURE IN FAHRENHEIT
DP     - DEW POINT IN FAHRENHEIT
RH     - RELATIVE HUMIDITY IN PERCENT
WIND   - DIRECTION AND SPEED IN MILES PER HOUR (MPH)
VRB    - VARIABLE WIND DIRECTION
PRES   - MEAN SEA LEVEL PRESSURE IN INCHES OF MERCURY
         F - FALLING PRESSURE   R - RISING PRESSURE
         S - STEADY PRESSURE
VSB    - VISIBILITY IN MILES
HX     - HEAT INDEX IN FAHRENHEIT
WCI    - WIND CHILL INDEX IN FAHRENHEIT
TC     - TEMPERATURE IN CELSIUS WHICH IS ALSO KNOWN AS
         TEMPERATURE IN CENTIGRADE
AFB    - AIR FORCE BASE
         LUKE AFB IS LUKE AIR FORCE BASE
         DAVIS-MONTHAN IS DAVIS-MONTHAN AIR FORCE BASE
NAS    - NAVAL AIR STATION
         EL CENTRO NAS IS EL CENTRO NAVAL AIR STATION
N/A    - NOT AVAILABLE



USA.gov is the U.S. government's official web portal to all federal, state and local government web resources and services.